Flag for USA

Past Weather in Marquette, Michigan, USA — Yesterday and Last 2 Weeks

Now
75 °F

Sunny.


Feels Like: 78 °F
Forecast: 70 / 56 °F
Wind: 7 mph from Northeast

Location: Sawyer Airport
Current Time: Sep 22, 2020 at 5:42:18 pm
Latest Report: Sep 22, 2020 at 4:47 pm
Visibility: 10 mi
Pressure30.03 "Hg
Humidity: 47%
Dew Point: 54 °F
Location of MarquetteLocation

Past Weather in Marquette — Graph

°F

Marquette Temperature Yesterday

Maximum temperature yesterday: 68 °F (at 1:46 pm)
Minimum temperature yesterday: 50 °F (at 6:47 am)
Average temperature yesterday: 57 °F

High & Low Weather Summary for the Past Weeks

 TemperatureHumidityPressure
High77 °F (Sep 15, 2:47 pm)100% (Sep 10, 8:47 am)30.45 "Hg (Sep 10, 8:47 am)
Low31 °F (Sep 18, 4:58 am)30% (Sep 22, 2:50 pm)29.76 "Hg (Sep 13, 12:58 am)
Average50 °F81%30.20 "Hg
* Reported Sep 7 3:46 pm — Sep 22 3:47 pm, Marquette. Weather by CustomWeather, © 2020

Note: Actual official high and low records may vary slightly from our data, if they occured in-between our weather recording intervals... More about our weather records

Marquette Weather History for the Previous 24 Hours

Scroll right to see more
 ConditionsComfort  
Time TempWeatherWind HumidityBarometerVisibility
3:47 pm
Tue, Sep 22
77 °FSunny.3 mph32%30.04 "Hg10 mi
2:50 pm77 °FSunny.16 mph30%30.05 "Hg10 mi
1:46 pm77 °FSunny.8 mph34%30.06 "Hg10 mi
12:47 pm73 °FSunny.12 mph47%30.07 "Hg10 mi
11:47 am70 °FSunny.9 mph53%30.08 "Hg10 mi
10:47 am64 °FSunny.8 mph68%30.09 "Hg10 mi
9:47 am59 °FSunny.7 mph77%30.09 "Hg10 mi
8:47 am52 °FSunny.No wind88%30.09 "Hg10 mi
7:47 am48 °FSunny.5 mph94%30.09 "Hg10 mi
6:47 am50 °FClear.6 mph88%30.09 "Hg10 mi
5:58 am49 °FClear.6 mph92%30.09 "Hg10 mi
5:38 am50 °FClear.6 mph92%30.09 "Hg10 mi
5:18 am51 °FClear.6 mph90%30.09 "Hg10 mi
4:58 am51 °FClear.3 mph91%30.09 "Hg10 mi
4:38 am51 °FClear.6 mph92%30.09 "Hg10 mi
4:18 am51 °FClear.7 mph90%30.09 "Hg10 mi
3:58 am52 °FClear.6 mph88%30.09 "Hg10 mi
3:38 am53 °FClear.6 mph87%30.09 "Hg10 mi
3:18 am53 °FClear.8 mph88%30.09 "Hg10 mi
2:58 am53 °FClear.10 mph87%30.10 "Hg10 mi
2:38 am54 °FClear.10 mph86%30.10 "Hg10 mi
1:58 am54 °FClear.12 mph85%30.11 "Hg10 mi
1:38 am54 °FClear.12 mph86%30.11 "Hg10 mi
1:18 am55 °FClear.14 mph84%30.12 "Hg10 mi
12:58 am56 °FPassing clouds.14 mph83%30.12 "Hg10 mi
12:38 am56 °FPassing clouds.16 mph83%30.13 "Hg10 mi
12:18 am56 °FPassing clouds.15 mph81%30.13 "Hg10 mi
11:58 pm
Mon, Sep 21
56 °FPassing clouds.15 mph80%30.13 "Hg10 mi
11:38 pm56 °FThundershowers. Passing clouds.16 mph80%30.13 "Hg10 mi
11:18 pm57 °FLight rain. Passing clouds.15 mph80%30.13 "Hg10 mi
10:58 pm57 °FPassing clouds.14 mph76%30.13 "Hg10 mi
10:38 pm58 °FPassing clouds.18 mph74%30.13 "Hg10 mi
10:18 pm58 °FPassing clouds.17 mph72%30.13 "Hg10 mi
9:47 pm59 °FPassing clouds.14 mph72%30.15 "Hg10 mi
8:47 pm61 °FPassing clouds.13 mph63%30.14 "Hg10 mi
7:47 pm63 °FPassing clouds.15 mph56%30.17 "Hg10 mi
6:47 pm64 °FScattered clouds.16 mph52%30.12 "Hg10 mi
5:47 pm66 °FSunny.17 mph46%30.13 "Hg10 mi
Weather by CustomWeather, © 2020

See weather overview